• In Österreich
  • Länderverzeichnis
  • Für 7 Tage
  • Wassertemperatur
  • Satellitenkarten
  • Wetterkarte
  • News
  • Widgets
  • user-avatar
    Anmelden

    Stündliche Wetter Belém

    Heute, 17 Juli, Dienstag

    Zeit Temperatur Niederschläge Wind Luftdruck Luftfeuchtigkeit
    00:00 +25°C° 0,1 mm 2 m/S 760 mmHg 95%
    01:00 +25°C° 0,4 mm 1 m/S 760 mmHg 95%
    02:00 +24°C° 0,4 mm 1 m/S 760 mmHg 96%
    03:00 +24°C° 0 mm 1 m/S 760 mmHg 97%
    04:00 +24°C° 0 mm 1 m/S 760 mmHg 97%
    05:00 +24°C° 0 mm 1 m/S 760 mmHg 97%
    06:00 +24°C° 0 mm 1 m/S 760 mmHg 97%
    07:00 +25°C° 0 mm 1 m/S 760 mmHg 92%
    08:00 +27°C° 0 mm 1 m/S 760 mmHg 87%
    09:00 +28°C° 0 mm 1 m/S 760 mmHg 82%
    10:00 +30°C° 0,1 mm 1 m/S 760 mmHg 73%
    11:00 +32°C° 0,1 mm 2 m/S 760 mmHg 64%
    12:00 +35°C° 0,1 mm 2 m/S 760 mmHg 55%
    13:00 +34°C° 0,3 mm 2 m/S 760 mmHg 58%
    14:00 +34°C° 0,3 mm 2 m/S 759 mmHg 61%
    15:00 +32°C° 0,3 mm 2 m/S 759 mmHg 64%
    16:00 +31°C° 0,3 mm 2 m/S 759 mmHg 72%
    17:00 +29°C° 0,3 mm 2 m/S 758 mmHg 79%
    18:00 +28°C° 0,3 mm 2 m/S 758 mmHg 87%
    19:00 +27°C° 0,2 mm 2 m/S 759 mmHg 90%
    20:00 +26°C° 0,2 mm 2 m/S 759 mmHg 92%
    21:00 +25°C° 0,2 mm 2 m/S 760 mmHg 95%
    22:00 +25°C° 0 mm 2 m/S 760 mmHg 95%
    23:00 +25°C° 0 mm 2 m/S 760 mmHg 95%

    Morgen, 18 Juli, Mittwoch

    Zeit Temperatur Niederschläge Wind Luftdruck Luftfeuchtigkeit
    00:00 +25°C° 0 mm 2 m/S 761 mmHg 94%
    01:00 +25°C° 0 mm 2 m/S 760 mmHg 94%
    02:00 +25°C° 0 mm 2 m/S 760 mmHg 94%
    03:00 +25°C° 0 mm 2 m/S 759 mmHg 94%
    04:00 +24°C° 0 mm 2 m/S 759 mmHg 94%
    05:00 +24°C° 0 mm 2 m/S 759 mmHg 94%
    06:00 +24°C° 0 mm 2 m/S 759 mmHg 95%
    07:00 +26°C° 0 mm 2 m/S 759 mmHg 89%
    08:00 +27°C° 0 mm 2 m/S 760 mmHg 84%
    09:00 +29°C° 0 mm 2 m/S 760 mmHg 79%
    10:00 +30°C° 0 mm 2 m/S 760 mmHg 71%
    11:00 +32°C° 0 mm 2 m/S 760 mmHg 62%
    12:00 +35°C° 0 mm 2 m/S 760 mmHg 54%
    13:00 +35°C° 0,1 mm 2 m/S 759 mmHg 54%
    14:00 +35°C° 0,1 mm 2 m/S 758 mmHg 54%
    15:00 +35°C° 0,1 mm 2 m/S 757 mmHg 54%
    16:00 +32°C° 0,5 mm 2 m/S 757 mmHg 67%
    17:00 +30°C° 0,5 mm 2 m/S 757 mmHg 79%
    18:00 +27°C° 0,5 mm 2 m/S 757 mmHg 91%
    19:00 +27°C° 0,1 mm 2 m/S 758 mmHg 92%
    20:00 +26°C° 0,1 mm 2 m/S 759 mmHg 94%
    21:00 +25°C° 0,1 mm 2 m/S 759 mmHg 95%
    22:00 +25°C° 0 mm 2 m/S 759 mmHg 95%
    23:00 +25°C° 0 mm 2 m/S 759 mmHg 95%

    übermorgen, 19 Juli, Donnerstag

    Zeit Temperatur Niederschläge Wind Luftdruck Luftfeuchtigkeit
    00:00 +25°C° 0 mm 2 m/S 760 mmHg 95%
    01:00 +25°C° 0 mm 1 m/S 759 mmHg 95%
    02:00 +25°C° 0 mm 1 m/S 758 mmHg 96%
    03:00 +24°C° 0 mm 1 m/S 758 mmHg 96%
    04:00 +24°C° 0 mm 1 m/S 758 mmHg 96%
    05:00 +24°C° 0 mm 1 m/S 758 mmHg 96%
    06:00 +24°C° 0 mm 1 m/S 758 mmHg 96%
    07:00 +25°C° 0 mm 1 m/S 758 mmHg 90%
    08:00 +27°C° 0 mm 1 m/S 759 mmHg 83%
    09:00 +28°C° 0 mm 2 m/S 759 mmHg 77%
    10:00 +30°C° 0 mm 2 m/S 759 mmHg 70%
    11:00 +32°C° 0 mm 2 m/S 759 mmHg 63%
    12:00 +34°C° 0 mm 2 m/S 759 mmHg 56%
    13:00 +34°C° 0,3 mm 2 m/S 758 mmHg 60%
    14:00 +32°C° 0,3 mm 2 m/S 758 mmHg 64%
    15:00 +32°C° 0,3 mm 2 m/S 757 mmHg 68%
    16:00 +30°C° 0,9 mm 2 m/S 757 mmHg 76%
    17:00 +29°C° 0,9 mm 2 m/S 757 mmHg 84%
    18:00 +27°C° 0,9 mm 2 m/S 757 mmHg 93%
    19:00 +26°C° 0,2 mm 2 m/S 758 mmHg 93%
    20:00 +26°C° 0,2 mm 2 m/S 758 mmHg 94%
    21:00 +25°C° 0,2 mm 2 m/S 759 mmHg 95%
    22:00 +25°C° 0,1 mm 2 m/S 759 mmHg 95%
    23:00 +25°C° 0,1 mm 2 m/S 759 mmHg 95%

    20 Juli, Freitag

    Zeit Temperatur Niederschläge Wind Luftdruck Luftfeuchtigkeit
    00:00 +25°C° 0,1 mm 2 m/S 759 mmHg 95%
    01:00 +25°C° 0,3 mm 2 m/S 758 mmHg 95%
    02:00 +25°C° 0,3 mm 2 m/S 758 mmHg 94%
    03:00 +25°C° 0,3 mm 2 m/S 757 mmHg 94%
    04:00 +24°C° 0 mm 2 m/S 757 mmHg 95%
    05:00 +24°C° 0 mm 1 m/S 757 mmHg 96%
    06:00 +24°C° 0 mm 1 m/S 757 mmHg 96%
    07:00 +26°C° 0 mm 1 m/S 758 mmHg 91%
    08:00 +27°C° 0 mm 2 m/S 759 mmHg 85%
    09:00 +29°C° 0 mm 2 m/S 759 mmHg 80%
    10:00 +30°C° 0,1 mm 2 m/S 759 mmHg 71%
    11:00 +32°C° 0,1 mm 2 m/S 759 mmHg 62%
    12:00 +34°C° 0,1 mm 2 m/S 759 mmHg 54%
    13:00 +34°C° 0,3 mm 2 m/S 758 mmHg 60%
    14:00 +32°C° 0,3 mm 2 m/S 758 mmHg 65%
    15:00 +31°C° 0,3 mm 2 m/S 757 mmHg 71%
    16:00 +30°C° 0,2 mm 2 m/S 757 mmHg 73%
    17:00 +29°C° 0,2 mm 2 m/S 757 mmHg 75%
    18:00 +29°C° 0,2 mm 1 m/S 757 mmHg 76%
    19:00 +28°C° 0 mm 1 m/S 758 mmHg 80%
    20:00 +27°C° 0 mm 2 m/S 758 mmHg 84%
    21:00 +26°C° 0 mm 2 m/S 759 mmHg 88%
    22:00 +26°C° 0 mm 2 m/S 759 mmHg 88%
    23:00 +26°C° 0 mm 2 m/S 759 mmHg 89%

    21 Juli, Samstag

    Zeit Temperatur Niederschläge Wind Luftdruck Luftfeuchtigkeit
    00:00 +25°C° 0 mm 2 m/S 759 mmHg 89%
    01:00 +25°C° 0 mm 2 m/S 759 mmHg 90%
    02:00 +25°C° 0 mm 2 m/S 758 mmHg 92%
    03:00 +24°C° 0 mm 1 m/S 757 mmHg 93%
    04:00 +24°C° 0 mm 1 m/S 758 mmHg 94%
    05:00 +24°C° 0 mm 1 m/S 758 mmHg 94%
    06:00 +24°C° 0 mm 1 m/S 758 mmHg 95%
    07:00 +25°C° 0 mm 1 m/S 759 mmHg 87%
    08:00 +27°C° 0 mm 2 m/S 759 mmHg 80%
    09:00 +29°C° 0 mm 2 m/S 760 mmHg 73%
    10:00 +30°C° 0 mm 2 m/S 760 mmHg 65%
    11:00 +32°C° 0 mm 2 m/S 759 mmHg 57%
    12:00 +35°C° 0 mm 2 m/S 759 mmHg 49%
    13:00 +35°C° 0 mm 2 m/S 758 mmHg 47%
    14:00 +36°C° 0 mm 2 m/S 758 mmHg 45%
    15:00 +36°C° 0 mm 2 m/S 757 mmHg 43%
    16:00 +35°C° 0,1 mm 2 m/S 757 mmHg 50%
    17:00 +32°C° 0,1 mm 2 m/S 757 mmHg 58%
    18:00 +31°C° 0,1 mm 2 m/S 757 mmHg 65%
    19:00 +29°C° 0 mm 2 m/S 758 mmHg 69%
    20:00 +28°C° 0 mm 2 m/S 758 mmHg 74%
    21:00 +27°C° 0 mm 2 m/S 759 mmHg 79%
    22:00 +26°C° 0 mm 2 m/S 759 mmHg 82%
    23:00 +26°C° 0 mm 2 m/S 759 mmHg 84%

    22 Juli, Sonntag

    Zeit Temperatur Niederschläge Wind Luftdruck Luftfeuchtigkeit
    00:00 +25°C° 0 mm 2 m/S 759 mmHg 87%
    01:00 +25°C° 0 mm 2 m/S 758 mmHg 88%
    02:00 +25°C° 0 mm 1 m/S 758 mmHg 90%
    03:00 +24°C° 0 mm 1 m/S 757 mmHg 91%
    04:00 +24°C° 0 mm 1 m/S 758 mmHg 92%
    05:00 +24°C° 0 mm 1 m/S 758 mmHg 93%
    06:00 +24°C° 0 mm 1 m/S 758 mmHg 94%
    07:00 +26°C° 0 mm 2 m/S 759 mmHg 86%
    08:00 +27°C° 0 mm 2 m/S 759 mmHg 79%
    09:00 +29°C° 0 mm 2 m/S 760 mmHg 71%
    10:00 +31°C° 0,1 mm 2 m/S 759 mmHg 65%
    11:00 +32°C° 0,1 mm 2 m/S 759 mmHg 59%
    12:00 +35°C° 0,1 mm 2 m/S 759 mmHg 53%
    13:00 +35°C° 0 mm 2 m/S 758 mmHg 51%
    14:00 +35°C° 0 mm 2 m/S 758 mmHg 50%
    15:00 +36°C° 0 mm 2 m/S 757 mmHg 49%
    16:00 +34°C° 0,6 mm 2 m/S 757 mmHg 61%
    17:00 +30°C° 0,6 mm 2 m/S 758 mmHg 73%
    18:00 +28°C° 0,6 mm 3 m/S 758 mmHg 85%
    19:00 +27°C° 0,1 mm 2 m/S 758 mmHg 86%
    20:00 +27°C° 0,1 mm 2 m/S 759 mmHg 88%
    21:00 +26°C° 0,1 mm 2 m/S 759 mmHg 90%
    22:00 +26°C° 0 mm 2 m/S 759 mmHg 90%
    23:00 +26°C° 0 mm 2 m/S 759 mmHg 90%
    Mehr zeigen